Home > Weather > Sankt Augustin > Past weeks

Flag for Germany Past Weather in Sankt Augustin, North Rhine-Westphalia, Germany — Yesterday and Last 2 Weeks

Now
63 °F

Sunny.


Feels Like: 63 °F
Forecast: 61 / 75 °F
Wind: 3 mph from Southeast

Location: Koeln / Bonn

Current Time: Jul 26, 2016 at 9:53:42 PM

Latest Report: Jul 26, 2016 at 9:20 PM


Visibility: 10 mi

Pressure: 30.12 "Hg

Humidity: 94%

Dew Point: 61 °F

Location of Sankt AugustinLocation

Past Weather in Sankt Augustin — Graph

°F

Sankt Augustin Temperature Yesterday

Maximum temperature yesterday: 81 °F (at 1:20 PM)
Minimum temperature yesterday: 64 °F (at 5:20 AM)
Average temperature yesterday: 72 °F

High & Low Weather Summary for the Past Weeks

 TemperatureHumidityPressure
High93 °F (Jul 20, 3:20 PM)100% (Jul 13, 4:20 AM)30.30 "Hg (Jul 13, 4:20 AM)
Low48 °F (Jul 14, 4:20 AM)32% (Jul 20, 3:20 PM)29.86 "Hg (Jul 11, 8:20 PM)
Average69 °F73%30.08 "Hg
* Reported Jul 11 8:20 PM — Jul 26 8:20 PM, Sankt Augustin, Weather by CustomWeather, © 2016

Note: Actual official high and low records may vary slightly from our data, if they occured in-between our weather recording intervals... More about our weather records

Advertising

Sankt Augustin Weather History for the Previous 24 Hours

Scroll right to see more
 ConditionsComfort  
Time TempWeatherWind HumidityBarometerVisibility
8:20 PM
Tue, Jul 26
68 °FPartly sunny.2 mph78%30.12 "HgN/A
7:50 PM68 °FPartly sunny.5 mph78%30.12 "HgN/A
7:20 PM68 °FPartly sunny.3 mph78%30.12 "HgN/A
6:50 PM68 °FPartly sunny.3 mph73%30.12 "HgN/A
6:20 PM68 °FPartly sunny.5 mph73%30.12 "HgN/A
5:50 PM68 °FPartly sunny.5 mph73%30.12 "HgN/A
5:20 PM68 °FBroken clouds.7 mph73%30.12 "HgN/A
4:50 PM70 °FLight rain. Partly sunny.5 mph64%30.12 "HgN/A
4:20 PM68 °FLight rain. Partly sunny.8 mph73%30.12 "HgN/A
3:50 PM70 °FLight rain. Broken clouds.7 mph73%30.12 "HgN/A
3:20 PM70 °FLight rain. Partly sunny.10 mph69%30.12 "HgN/A
2:50 PM72 °FLight rain. Broken clouds.6 mph65%30.12 "HgN/A
2:20 PM72 °FBroken clouds.6 mph65%30.12 "HgN/A
1:50 PM73 °FBroken clouds.5 mph61%30.12 "HgN/A
1:20 PM73 °FPartly sunny.5 mph61%30.12 "HgN/A
12:50 PM73 °FPartly sunny.3 mph61%30.12 "HgN/A
12:20 PM75 °FBroken clouds.5 mph57%30.12 "HgN/A
11:50 AM73 °FBroken clouds.2 mph57%30.15 "HgN/A
11:20 AM72 °FPartly sunny.2 mph69%30.15 "HgN/A
10:50 AM70 °FBroken clouds.1 mph73%30.15 "HgN/A
10:20 AM70 °FBroken clouds.1 mph78%30.15 "HgN/A
9:50 AM70 °FBroken clouds.1 mph78%30.15 "HgN/A
9:20 AM68 °FPartly sunny.1 mph83%30.15 "HgN/A
8:50 AM66 °FPartly sunny.1 mph88%30.12 "HgN/A
8:20 AM68 °FPartly sunny.2 mph83%30.12 "HgN/A
7:50 AM66 °FBroken clouds.2 mph88%30.12 "HgN/A
7:20 AM66 °FPartly sunny.3 mph88%30.12 "HgN/A
6:50 AM64 °FPartly sunny.2 mph94%30.12 "HgN/A
6:20 AM63 °FPassing clouds.1 mph94%30.12 "HgN/A
5:50 AM63 °FPassing clouds.2 mph94%30.12 "HgN/A
5:20 AM63 °FPassing clouds.1 mph94%30.12 "HgN/A
4:50 AM64 °FPassing clouds.2 mph94%30.12 "HgN/A
4:20 AM64 °FPassing clouds.3 mph94%30.09 "HgN/A
3:50 AM64 °FPassing clouds.2 mph94%30.12 "HgN/A
3:20 AM66 °FPartly cloudy.6 mph88%30.12 "HgN/A
2:50 AM66 °FPartly cloudy.6 mph88%30.12 "HgN/A
2:20 AM66 °FPassing clouds.1 mph88%30.12 "HgN/A
1:50 AM68 °FPartly cloudy.1 mph88%30.09 "HgN/A
1:20 AM68 °FPassing clouds.3 mph83%30.12 "HgN/A
12:50 AM68 °FPassing clouds.2 mph83%30.12 "HgN/A
12:20 AM68 °FPassing clouds.2 mph83%30.12 "HgN/A
11:50 PM
Mon, Jul 25
70 °FPassing clouds.1 mph78%30.12 "HgN/A
11:20 PM70 °FPassing clouds.3 mph78%30.09 "HgN/A
10:50 PM70 °FPassing clouds.1 mph78%30.09 "HgN/A
10:20 PM70 °FScattered clouds.1 mph78%30.09 "HgN/A
9:50 PM70 °FScattered clouds.7 mph73%30.09 "HgN/A
9:20 PM73 °FScattered clouds.8 mph65%30.09 "HgN/A
Weather by CustomWeather, © 2016

See weather overviewHow to use our weather pages